Location: Arboyeti
(42.1122°N, 44.6017°E)
Time: 09:39:22
(UTC+00:00)

N. Korean satellite - Pass Details

Date: 26 September 2021
Orbit: 450 x 495 km, 97.3° (Epoch: 15 October)

Event Time Altitude Azimuth Distance (km) Brightness Sun altitude
Rises 01:29:36 0° 28° (NNE) 2,531 10.8 -16.2°
Reaches altitude 10° 01:32:05 10° 46° (NE) 1,657 10.2 -15.7°
Maximum altitude 01:34:43 19° 94° (E) 1,193 9.5 -15.3°
Drops below altitude 10° 01:37:22 10° 142° (SE) 1,665 9.6 -14.8°
Sets 01:39:52 0° 160° (SSE) 2,548 10.3 -14.3°
